User: anonymous   Login
Location: Unspecified
(0.0000°N, 0.0000°E)
Time: 19:59:58
(UTC+00:00)
Language:

Gonets-D1 - Orbit

View from above orbital plane
View from above orbital plane
View from above satellite
View from above satellite

Ground track
Ground track

The orbit data is extracted from the following two-line orbital elements,

1 24727U 97006C   18171.83717597 -.00000001 +00000-0 -67347-4 0  9993
2 24727 082.6039 311.0501 0000914 138.1665 014.9704 12.62321472983406
Epoch (UTC): 20 June 2018 20:05:32
Eccentricity: 0.0000914
inclination: 82.6039°
perigee height: 1412 km
apogee height: 1414 km
right ascension of ascending node: 311.0501°
argument of perigee: 138.1665°
revolutions per day: 12.62321472
mean anomaly at epoch: 14.9704°
orbit number at epoch: 98340

The dashed part of the orbit path shows where the satellite is in the earth's shadow,  

DLR